Location: Zagreb
(45.8000°N, 16.0000°E)
Time: 15:09:37
(UTC+01:00)

ISS - Visible Passes

Search period start: 23 March 2017 00:00
Search period end: 02 April 2017 01:00
Orbit: 399 x 409 km, 51.6° (Epoch: 23 March)

Date Brightness Start Highest point End Pass type
(mag) Time Alt. Az. Time Alt. Az. Time Alt. Az.
23 Mar -2.7 04:30:04 27° SSW 04:30:04 27° SSW 04:32:42 10° SSE visible
24 Mar -0.9 03:40:44 11° SE 03:40:44 11° SE 03:40:50 10° SE visible
26 Mar -1.1 21:07:23 10° SSW 21:07:28 11° SSW 21:07:28 11° SSW visible
27 Mar -2.2 20:15:53 10° S 20:18:05 17° SE 20:18:28 17° SE visible
27 Mar -0.9 21:50:56 10° WSW 21:51:12 12° WSW 21:51:12 12° WSW visible
28 Mar -3.9 20:58:37 10° SW 21:01:50 62° SSE 21:01:53 62° SE visible
29 Mar -3.1 20:06:31 10° SSW 20:09:32 35° SE 20:12:20 11° ENE visible
29 Mar -2.2 21:42:48 10° W 21:45:02 34° WNW 21:45:02 34° WNW visible
30 Mar -3.6 20:50:14 10° WSW 20:53:29 68° NNW 20:55:14 25° NE visible
30 Mar -0.5 22:27:24 10° WNW 22:27:55 13° WNW 22:27:55 13° WNW visible
31 Mar -3.9 19:57:49 10° SW 20:01:03 75° SSE 20:04:19 10° ENE visible
31 Mar -2.3 21:34:44 10° WNW 21:37:45 33° N 21:37:56 32° N visible
01 Apr -2.7 20:42:04 10° W 20:45:11 41° NNW 20:47:49 13° NE visible
01 Apr -0.9 22:19:16 10° WNW 22:20:29 18° NW 22:20:29 18° NW visible
